K0NV Weather Reports


time (UTC)temp
C
wind
direction
speed
KPH
gust
KPH
rain 1hr
cm
rain 24hr
cm
rain mn
cm
humidity
%
barometer
mb
20260505124613 13 19 0.0 0.0 0.00 0.76 0.76 99 1007.9
20260505124110 13 8 0.0 1.6 0.00 0.76 0.76 99 1008.0
20260505123606 13 3 0.0 0.0 0.00 0.76 0.76 99 1007.9
20260505123103 13 275 0.0 0.0 0.00 0.76 0.76 99 1007.9
20260505122559 13 26 0.0 1.6 0.00 0.76 0.76 99 1007.4
20260505122056 13 33 0.0 0.0 0.00 0.76 0.76 99 1007.5
20260505121547 13 47 0.0 0.0 0.00 0.76 0.76 99 1007.7
20260505121044 13 82 0.0 0.0 0.00 0.76 0.76 99 1007.3
20260505120540 13 16 0.0 0.0 0.00 0.76 0.76 99 1007.2
20260505120036 13 52 0.0 1.6 0.00 0.76 0.76 99 1007.2
20260505115531 13 33 1.6 3.2 0.00 0.76 0.76 99 1007.2
20260505115029 13 47 8.0 9.7 0.00 0.76 0.76 99 1007.4
20260505114525 13 92 0.0 1.6 0.00 0.76 0.76 99 1007.2
20260505114022 14 44 0.0 1.6 0.00 0.76 0.76 99 1007.2
20260505113518 14 28 0.0 3.2 0.00 0.76 0.76 99 1007.2
20260505113014 14 36 0.0 0.0 0.00 0.76 0.76 99 1007.2
20260505112510 15 282 0.0 0.0 0.00 0.76 0.76 99 1007.7
20260505112009 15 246 0.0 0.0 0.00 0.76 0.76 99 1007.1
20260505111502 15 3 0.0 0.0 0.00 0.76 0.76 99 1007.0
20260505110959 15 288 0.0 0.0 0.18 0.76 0.76 99 1007.1
20260505110455 15 279 0.0 0.0 0.18 0.76 0.76 99 1007.2
20260505101927 14 275 0.0 0.0 0.00 0.71 0.71 99 1007.2
20260505101427 14 297 0.0 0.0 0.00 0.71 0.71 99 1007.1
20260505100923 14 189 0.0 0.0 0.18 0.71 0.71 99 1007.1
20260505100420 15 305 0.0 0.0 0.18 0.71 0.71 99 1006.7
20260505095915 14 335 0.0 0.0 0.00 0.69 0.69 99 1006.5
20260505095413 14 240 0.0 0.0 0.00 0.69 0.69 99 1006.0
20260505094909 14 233 0.0 0.0 0.00 0.69 0.69 99 1006.2
20260505094406 14 247 0.0 0.0 0.00 0.69 0.69 99 1006.2
20260505093901 14 250 0.0 0.0 0.00 0.69 0.69 99 1006.0
20260505093359 14 209 0.0 0.0 0.00 0.69 0.69 99 1006.0
20260505092856 15 223 0.0 0.0 0.13 0.69 0.69 98 1006.0
20260505092354 15 269 0.0 0.0 0.13 0.69 0.69 98 1005.8
20260505091851 15 244 0.0 0.0 0.00 0.66 0.66 98 1005.4
20260505091349 15 293 0.0 0.0 0.00 0.66 0.66 98 1005.4
20260505090847 14 243 0.0 0.0 0.00 0.66 0.66 98 1005.1
20260505090345 14 231 0.0 0.0 0.00 0.66 0.66 98 1005.3
20260505085842 14 233 1.6 4.8 0.00 0.66 0.66 99 1004.5
20260505085340 14 148 0.0 0.0 0.18 0.66 0.66 99 1004.2
20260505084837 15 206 0.0 0.0 0.30 0.66 0.66 99 1005.0
20260505084335 15 212 1.6 4.8 0.30 0.64 0.64 99 1005.5
20260505083832 15 216 0.0 0.0 0.30 0.61 0.61 99 1005.8
20260505083330 15 222 0.0 0.0 0.30 0.58 0.58 99 1006.6
20260505082826 15 226 0.0 0.0 0.48 0.56 0.56 99 1007.0
20260505082323 15 246 0.0 0.0 0.61 0.53 0.53 99 1007.3
20260505081819 15 222 0.0 1.6 0.48 0.48 0.48 99 1007.2
20260505081316 15 229 0.0 1.6 0.30 0.46 0.46 99 1007.5
20260505080813 15 239 0.0 0.0 0.43 0.41 0.41 99 1007.1
20260505080309 15 171 0.0 0.0 0.43 0.41 0.41 99 1007.2
20260505075804 16 229 0.0 3.2 0.43 0.36 0.36 99 1007.5
20260505075304 15 207 1.6 3.2 0.30 0.30 0.30 99 1007.5
20260505074758 15 243 3.2 3.2 0.66 0.28 0.28 98 1007.1
20260505074256 15 238 8.0 11.3 0.48 0.25 0.25 98 1007.0
20260505073753 16 240 4.8 4.8 0.48 0.20 0.20 96 1007.1
20260505073251 16 220 4.8 8.0 0.61 0.18 0.18 95 1007.4
20260505072747 16 231 4.8 4.8 0.61 0.13 0.13 93 1007.4
20260505072243 16 236 4.8 4.8 0.43 0.08 0.08 90 1007.1
20260505071739 17 224 3.2 3.2 0.13 0.03 0.03 87 1007.1
20260505071236 17 225 11.3 14.5 0.00 0.00 0.00 85 1007.0
20260505070734 17 220 1.6 3.2 0.00 0.00 0.00 82 1007.4
20260505070230 18 236 3.2 4.8 0.00 0.00 0.00 80 1007.4
20260505065726 18 257 4.8 8.0 0.00 0.00 0.00 79 1007.4
20260505065223 17 228 3.2 8.0 0.00 0.00 0.00 80 1006.7
20260505064720 17 240 1.6 1.6 0.00 0.00 0.00 80 1006.5
20260505064218 17 230 3.2 3.2 0.00 0.00 0.00 80 1006.3
20260505063715 17 204 1.6 1.6 0.00 0.00 0.00 80 1006.4
20260505063211 17 221 1.6 3.2 0.00 0.00 0.00 80 1006.6
20260505062707 17 222 0.0 0.0 0.00 0.00 0.00 80 1006.7
20260505062205 17 243 4.8 8.0 0.00 0.00 0.00 80 1007.0
20260505061702 17 216 1.6 1.6 0.00 0.00 0.00 80 1006.9
20260505061200 17 225 1.6 1.6 0.00 0.00 0.00 80 1007.0
20260505060657 17 219 1.6 3.2 0.00 0.00 0.00 80 1006.6
20260505060154 17 197 1.6 1.6 0.00 0.00 0.00 80 1007.1
20260505055649 17 214 0.0 1.6 0.00 0.00 0.00 80 1006.9
20260505055146 17 230 0.0 0.0 0.00 0.00 0.00 80 1006.7
20260505054643 17 213 0.0 0.0 0.00 0.00 0.00 80 1007.0
20260505054141 17 222 1.6 3.2 0.00 0.00 0.00 80 1007.0
20260505053639 17 211 1.6 1.6 0.00 0.00 0.00 80 1007.0
20260505053135 17 208 1.6 1.6 0.00 0.00 0.00 80 1007.0
20260505052632 17 226 0.0 0.0 0.00 0.00 0.00 80 1007.1
20260505052129 17 190 0.0 0.0 0.00 0.00 0.00 80 1006.7
20260505051626 17 204 1.6 1.6 0.00 0.00 0.00 80 1006.7
20260505051124 17 199 0.0 0.0 0.00 0.00 0.00 80 1007.0
20260505050622 17 221 0.0 0.0 0.00 0.00 0.00 79 1007.1
20260505050120 17 204 0.0 0.0 0.00 0.00 0.00 79 1007.2
20260505041549 18 230 0.0 0.0 0.00 0.00 0.00 77 1007.5
20260505041047 18 228 0.0 1.6 0.00 0.00 0.00 76 1007.7
20260505040544 18 223 0.0 0.0 0.00 0.00 0.00 76 1007.7
20260505040041 18 230 0.0 0.0 0.00 0.00 0.00 76 1007.9
20260505035537 18 217 0.0 0.0 0.00 0.00 0.00 75 1007.8
20260505035034 18 222 0.0 0.0 0.00 0.00 0.00 74 1008.1
20260505034530 18 228 0.0 0.0 0.00 0.00 0.00 74 1007.9
20260505034027 18 216 0.0 0.0 0.00 0.00 0.00 73 1008.1
20260505033524 19 214 0.0 0.0 0.00 0.00 0.00 73 1008.0
20260505033023 19 214 0.0 0.0 0.00 0.00 0.00 73 1008.1
20260505032520 19 212 0.0 0.0 0.00 0.00 0.00 72 1008.0
20260505032016 20 219 1.6 1.6 0.00 0.00 0.00 71 1008.3
20260505031514 20 216 1.6 3.2 0.00 0.00 0.00 71 1008.0
20260505031010 20 217 1.6 1.6 0.00 0.00 0.00 71 1008.1
20260505030507 20 195 1.6 1.6 0.00 0.00 0.00 72 1008.1
20260505030002 20 198 0.0 1.6 0.00 0.00 0.00 72 1008.0
20260505025459 20 187 1.6 1.6 0.00 0.00 0.00 72 1008.0
20260505024958 20 225 1.6 1.6 0.00 0.00 0.00 72 1008.0
20260505024454 20 222 0.0 0.0 0.00 0.00 0.00 72 1008.3
20260505023952 20 223 0.0 0.0 0.00 0.00 0.00 72 1008.2
20260505023449 20 217 0.0 0.0 0.00 0.00 0.00 72 1007.9
20260505022946 20 219 0.0 0.0 0.00 0.00 0.00 72 1008.1
20260505022444 20 218 0.0 0.0 0.00 0.00 0.00 72 1007.7
20260505021941 20 218 0.0 0.0 0.00 0.00 0.00 71 1007.7
20260505021437 20 237 0.0 0.0 0.00 0.00 0.00 70 1007.8
20260505020933 20 232 0.0 0.0 0.00 0.00 0.00 70 1007.6
20260505020428 20 232 0.0 0.0 0.00 0.00 0.00 69 1007.6
20260505015925 20 236 0.0 0.0 0.00 0.00 0.00 69 1007.8
20260505015422 20 229 0.0 0.0 0.00 0.00 0.00 69 1007.5
20260505014920 20 244 0.0 0.0 0.00 0.00 0.00 68 1007.3
20260505014416 21 244 0.0 0.0 0.00 0.00 0.00 68 1007.4
20260505013913 21 242 0.0 0.0 0.00 0.00 0.00 67 1007.3
20260505013410 21 240 1.6 1.6 0.00 0.00 0.00 67 1007.2
20260505012908 21 232 0.0 0.0 0.00 0.00 0.00 67 1007.2
20260505012406 21 208 0.0 0.0 0.00 0.00 0.00 66 1007.0
20260505011902 21 235 0.0 0.0 0.00 0.00 0.00 65 1007.0
20260505011359 21 232 0.0 0.0 0.00 0.00 0.00 65 1007.0
20260505010855 21 223 0.0 0.0 0.00 0.00 0.00 64 1006.9
20260505010351 21 235 0.0 0.0 0.00 0.00 0.00 64 1006.9
20260505005847 21 218 0.0 0.0 0.00 0.00 0.00 64 1006.7
20260505005344 21 237 0.0 0.0 0.00 0.00 0.00 63 1006.7
20260505004842 22 217 0.0 0.0 0.00 0.00 0.00 63 1006.6
20260505004338 22 237 0.0 1.6 0.00 0.00 0.00 63 1006.5
20260505003836 22 227 0.0 0.0 0.00 0.00 0.00 62 1006.7
20260505003333 22 229 0.0 0.0 0.00 0.00 0.00 62 1006.6
20260505002828 22 232 0.0 0.0 0.00 0.00 0.00 61 1006.5
20260505002325 22 226 0.0 0.0 0.00 0.00 0.00 60 1006.5
20260505001824 22 234 1.6 3.2 0.00 0.00 0.00 60 1006.3
20260505001320 22 243 1.6 1.6 0.00 0.00 0.00 59 1006.3
20260505000818 22 251 1.6 1.6 0.00 0.00 0.00 59 1006.3
20260505000315 22 235 0.0 0.0 0.00 0.00 0.00 60 1006.4
20260504235812 23 201 1.6 1.6 0.00 0.00 0.00 59 1006.4
20260504235308 23 204 4.8 8.0 0.00 0.00 0.00 58 1006.4
20260504234806 23 201 3.2 3.2 0.00 0.00 0.00 57 1006.5
20260504234303 23 213 6.4 8.0 0.00 0.00 0.00 56 1006.2
20260504233759 24 222 4.8 8.0 0.00 0.00 0.00 56 1006.3
20260504233255 24 224 1.6 4.8 0.00 0.00 0.00 54 1006.5
20260504232752 24 234 1.6 1.6 0.00 0.00 0.00 54 1006.5
20260504232249 25 239 0.0 3.2 0.00 0.00 0.00 54 1006.2
20260504231746 25 209 1.6 1.6 0.00 0.00 0.00 53 1006.4
20260504231242 25 220 3.2 4.8 0.00 0.00 0.00 53 1006.1
20260504230738 25 209 3.2 3.2 0.00 0.00 0.00 52 1006.0
20260504230237 25 224 6.4 9.7 0.00 0.00 0.00 52 1006.1
20260504225736 25 198 1.6 1.6 0.00 0.00 0.00 52 1006.4
20260504225231 25 231 1.6 1.6 0.00 0.00 0.00 52 1006.3
20260504224729 25 223 1.6 1.6 0.00 0.00 0.00 53 1006.2
20260504224226 25 249 4.8 8.0 0.00 0.00 0.00 53 1006.2
20260504223722 25 217 4.8 8.0 0.00 0.00 0.00 53 1006.4
20260504223218 25 237 0.0 1.6 0.00 0.00 0.00 54 1006.2
20260504222715 25 208 6.4 8.0 0.00 0.00 0.00 53 1006.3
20260504222212 25 229 0.0 0.0 0.00 0.00 0.00 53 1006.4
20260504221709 25 239 8.0 9.7 0.00 0.00 0.00 52 1006.3
20260504221206 26 238 3.2 4.8 0.00 0.00 0.00 51 1006.4
20260504220703 26 218 1.6 3.2 0.00 0.00 0.00 53 1006.4
20260504220200 25 218 6.4 8.0 0.00 0.00 0.00 53 1006.3
20260504215656 25 240 4.8 4.8 0.00 0.00 0.00 53 1006.5
20260504215154 25 212 9.7 12.9 0.00 0.00 0.00 53 1006.2
20260504214649 25 248 3.2 4.8 0.00 0.00 0.00 54 1006.5
20260504214146 26 208 6.4 9.7 0.00 0.00 0.00 52 1006.3
20260504213643 26 240 3.2 8.0 0.00 0.00 0.00 52 1006.4
20260504213139 25 241 4.8 4.8 0.00 0.00 0.00 53 1006.4
20260504212636 25 229 8.0 11.3 0.00 0.00 0.00 52 1006.6
20260504212133 25 208 9.7 12.9 0.00 0.00 0.00 52 1006.6
20260504211630 25 236 1.6 3.2 0.00 0.00 0.00 55 1006.6
20260504211126 25 236 11.3 17.7 0.00 0.00 0.00 54 1006.7
20260504210625 26 232 3.2 3.2 0.00 0.00 0.00 53 1006.5
20260504210120 25 225 4.8 9.7 0.00 0.00 0.00 52 1007.0
20260504205618 25 214 4.8 8.0 0.00 0.00 0.00 53 1007.0
20260504205116 25 215 4.8 8.0 0.00 0.00 0.00 53 1007.2
20260504204614 25 240 11.3 16.1 0.00 0.00 0.00 54 1007.2
20260504204113 25 235 14.5 20.9 0.00 0.00 0.00 53 1007.1
20260504203611 25 209 6.4 9.7 0.00 0.00 0.00 53 1007.5
20260504203108 25 199 3.2 4.8 0.00 0.00 0.00 54 1007.3
20260504202603 25 232 6.4 9.7 0.00 0.00 0.00 53 1007.5
20260504202100 25 222 1.6 3.2 0.00 0.00 0.00 53 1007.6
20260504201557 25 221 9.7 11.3 0.00 0.00 0.00 53 1007.6
20260504201055 25 236 9.7 11.3 0.00 0.00 0.00 53 1007.7
20260504200551 25 224 12.9 17.7 0.00 0.00 0.00 52 1007.9
20260504200048 25 211 6.4 9.7 0.00 0.00 0.00 53 1007.6
20260504195544 25 229 4.8 4.8 0.00 0.00 0.00 53 1007.7
20260504195041 25 237 4.8 8.0 0.00 0.00 0.00 54 1007.8
20260504194537 25 220 6.4 9.7 0.00 0.00 0.00 52 1007.7
20260504194033 25 191 3.2 4.8 0.00 0.00 0.00 53 1008.0
20260504193529 25 197 9.7 16.1 0.00 0.00 0.00 53 1007.9
20260504193028 25 280 16.1 25.7 0.00 0.00 0.00 54 1008.0
20260504192526 25 245 9.7 12.9 0.00 0.00 0.00 54 1007.9
20260504192024 25 198 9.7 12.9 0.00 0.00 0.00 54 1007.8
20260504191522 25 246 11.3 16.1 0.00 0.00 0.00 54 1007.9
20260504191017 25 251 8.0 11.3 0.00 0.00 0.00 54 1008.0
20260504190514 25 185 8.0 9.7 0.00 0.00 0.00 54 1007.8
20260504190009 24 190 8.0 9.7 0.00 0.00 0.00 54 1008.0
20260504185507 24 229 12.9 14.5 0.00 0.00 0.00 54 1008.1
20260504185004 25 190 8.0 9.7 0.00 0.00 0.00 54 1007.9
20260504184459 25 182 11.3 20.9 0.00 0.00 0.00 55 1008.0
20260504183954 25 229 9.7 11.3 0.00 0.00 0.00 53 1008.3
20260504183452 24 227 8.0 9.7 0.00 0.00 0.00 55 1008.2
20260504182950 24 220 11.3 12.9 0.00 0.00 0.00 54 1008.3
20260504182446 25 245 6.4 8.0 0.00 0.00 0.00 54 1008.1
20260504181944 24 262 6.4 11.3 0.00 0.00 0.00 55 1008.2
20260504181441 24 221 12.9 16.1 0.00 0.00 0.00 53 1008.1
20260504180939 24 222 8.0 11.3 0.00 0.00 0.00 54 1008.3
20260504180438 24 232 4.8 8.0 0.00 0.00 0.00 55 1008.1
20260504175936 24 227 6.4 8.0 0.00 0.00 0.00 54 1008.1
20260504175433 24 227 1.6 3.2 0.00 0.00 0.00 55 1008.2
20260504174930 24 204 8.0 12.9 0.00 0.00 0.00 53 1008.3
20260504174427 24 184 3.2 3.2 0.00 0.00 0.00 55 1008.5
20260504173925 23 235 6.4 8.0 0.00 0.00 0.00 55 1008.3
20260504173421 23 248 8.0 9.7 0.00 0.00 0.00 55 1008.5
20260504172919 24 233 8.0 11.3 0.00 0.00 0.00 56 1008.7
20260504172415 23 225 3.2 4.8 0.00 0.00 0.00 55 1008.3
20260504171911 23 216 6.4 9.7 0.00 0.00 0.00 55 1008.5
20260504171409 23 217 11.3 14.5 0.00 0.00 0.00 55 1008.6
20260504170905 23 222 6.4 9.7 0.00 0.00 0.00 56 1008.5
20260504170402 23 173 11.3 14.5 0.00 0.00 0.00 55 1008.3
20260504160321 22 250 17.7 25.7 0.00 0.00 0.00 55 1008.9
20260504150745 22 247 4.8 4.8 0.00 0.00 0.00 57 1009.5
20260504150242 22 199 6.4 9.7 0.00 0.00 0.00 57 1009.6
20260504141212 20 229 6.4 9.7 0.00 0.00 0.00 58 1010.1
20260504140709 20 232 9.7 12.9 0.00 0.00 0.00 58 1010.1
20260504140204 20 255 8.0 11.3 0.00 0.00 0.00 58 1010.3
20260504130632 18 243 12.9 14.5 0.00 0.00 0.00 61 1010.4
20260504130129 18 223 3.2 4.8 0.00 0.00 0.00 62 1010.4